This is the latest recevied weather packets stored in our database for station/object WA1OUI. If no packets are shown the sender has not sent any weather packets the latest 10 day(s).
| Time | Temp. | Humidity | Pressure | Rain* | Wind** | Luminosity | Snow |
|---|---|---|---|---|---|---|---|
| 1777468633 | 10.56° C | 64% | 1014.7 hPa | 0 mm | - | 47 W/m² | - |
| 1777468330 | 10.56° C | 64% | 1014.7 hPa | 0 mm | - | 50 W/m² | - |
| 1777468026 | 10.56° C | 64% | 1014.7 hPa | 0 mm | - | 51 W/m² | - |
| 1777467722 | 10.56° C | 65% | 1014.6 hPa | 0 mm | - | 42 W/m² | - |
| 1777467417 | 10° C | 66% | 1014.6 hPa | 0 mm | - | 44 W/m² | - |
| 1777467113 | 10° C | 65% | 1014.7 hPa | 0 mm | - | 40 W/m² | - |
| 1777466810 | 10° C | 67% | 1014.5 hPa | 0 mm | - | 57 W/m² | - |
| 1777466509 | 10° C | 66% | 1014.8 hPa | 0 mm | - | 43 W/m² | - |
| 1777466204 | 10° C | 66% | 1014.7 hPa | 0 mm | - | 38 W/m² | - |
| 1777465901 | 10° C | 67% | 1014.9 hPa | 0 mm | - | 37 W/m² | - |
| 1777465597 | 10° C | 67% | 1014.9 hPa | 0 mm | - | 37 W/m² | - |
| 1777465292 | 9.44° C | 68% | 1014.9 hPa | 0 mm | - | 37 W/m² | - |
| 1777464987 | 9.44° C | 67% | 1015 hPa | 0 mm | - | 43 W/m² | - |
| 1777464682 | 9.44° C | 69% | 1015.3 hPa | 0 mm | - | 36 W/m² | - |
| 1777464379 | 9.44° C | 69% | 1015.3 hPa | 0 mm | - | 36 W/m² | - |
| 1777464074 | 9.44° C | 68% | 1015.6 hPa | 0 mm | - | 33 W/m² | - |
| 1777463769 | 9.44° C | 67% | 1015.6 hPa | 0 mm | - | 30 W/m² | - |
| 1777463464 | 9.44° C | 68% | 1015.7 hPa | 0 mm | - | 90 W/m² | - |
| 1777463160 | 8.89° C | 69% | 1015.7 hPa | 0 mm | - | 65 W/m² | - |
| 1777462856 | 8.89° C | 70% | 1015.6 hPa | 0 mm | - | 60 W/m² | - |
| 1777462551 | 8.89° C | 70% | 1015.7 hPa | 0 mm | - | 26 W/m² | - |
| 1777462248 | 8.33° C | 71% | 1015.6 hPa | 0 mm | - | 26 W/m² | - |
| 1777461944 | 8.33° C | 71% | 1015.6 hPa | 0 mm | - | 25 W/m² | - |
| 1777461641 | 8.33° C | 71% | 1015.7 hPa | 0 mm | - | 26 W/m² | - |
| 1777461336 | 8.33° C | 70% | 1015.5 hPa | 0 mm | - | 32 W/m² | - |
* Rain latest hour (hover to see other rain measurements)
** Current wind speed in m/s (hover to see current wind gust speed)